Tracking 25686 objects as of 25-May-2022
HD Live streaming from Space Station
objects crossing your sky now

OSCAR 14 (UOSAT 3)

Track OSCAR 14 (UOSAT 3) now!
10-day predictions
OSCAR 14 (UOSAT 3) is classified as:


NORAD ID: 20437
Int'l Code: 1990-005B
Perigee: 783.9 km
Apogee: 797.5 km
Inclination: 98.9 °
Period: 100.5 minutes
Semi major axis: 7161 km
RCS: 0.3858 m2 (medium)
Launch date: January 22, 1990
Source: United Kingdom (UK)
Launch site: FRENCH GUIANA (FRGUI)

Uplink (MHz): 145.975
Downlink (MHz): 435.070
Beacon (MHz):
Mode: FM
Call sign:
Status: Inactive

aabbcc
Your satellite tracking list
Your tracking list is empty




NASA's NSSDC Master Catalog

Two Line Element Set (TLE):
1 20437U 90005B   22144.87875759  .00000157  00000-0  75223-4 0  9995
2 20437  98.8924 136.8993 0009473 291.6750 129.0540 14.32438043689039
Source of the keplerian elements: AFSPC